Tracking 18852 objects as of 23-Nov-2017
HD Live streaming from Space Station
objects crossing your sky now

FENGYUN 1C DEB

Track FENGYUN 1C DEB now!
10-day predictions


NORAD ID: 33619
Int'l Code: 1999-025DDC
Perigee: 838.2 km
Apogee: 924.5 km
Inclination: 99.1 °
Period: 102.4 minutes
Semi major axis: 7252 km
RCS: 0.0032 m2 (small)
Launch date: May 10, 1999
Source: People's Republic of China (PRC)
Launch site: Taiyaun Space Center, China (TSC)

Note: This is SATELLITE DEBRIS
aabbcc
Your satellite tracking list
Your tracking list is empty




NASA's NSSDC Master Catalog

Two Line Element Set (TLE):
1 33619U 99025DDC 17326.33915803  .00000850  00000-0  54023-3 0  9998
2 33619  99.0607  10.8796 0059499  27.9701  31.5261 14.05685960477480
Source of the keplerian elements: AFSPC